Lakeland Region, FL

9:58 PM EDT on August 23, 2017 (GMT -0400)
Lakeland Linder Regional

Weather History for KLAL - October, 2012

Change the Weather History Date:

Sunday, October 7, 2012

  Actual Average Record
Temperature  
Mean Temperature 78 °F -  
Max Temperature 87 °F 82 °F 93 °F (2009)
Min Temperature 69 °F 67 °F 57 °F (2010)
Cooling Degree Days 13    
Growing Degree Days 28 (Base 50)    
Moisture  
Dew Point 70 °F    
Average Humidity 86    
Maximum Humidity 100    
Minimum Humidity 49    
Precipitation  
Precipitation 0.00 in - - ()
Sea Level Pressure  
Sea Level Pressure 29.97 in    
Wind  
Wind Speed 1 mph (East)    
Max Wind Speed 9 mph    
Max Gust Speed -    
Visibility 12 miles    
Events      
Averages and records for this station are not official NWS values.
T = Trace of Precipitation, MM = Missing Value Source: NWS Daily Summary

Daily Weather History Graph

Daily Weather History Graph

Search for Another Location

Airport or City:

Trip Planner

Search our weather history database for the weather conditions in past years. The results will help you decide how hot, cold, wet, or windy it might be!

Date:

Astronomy

Oct. 07, 2012 Rise Set
Actual Time 7:24 AM EDT 7:06 PM EDT
Civil Twilight 7:00 AM EDT 7:30 PM EDT
Nautical Twilight 6:33 AM EDT 7:57 PM EDT
Astronomical Twilight 6:06 AM EDT 8:24 PM EDT
Moon No Moon Rise 1:40 PM EDT (10/7)
Length of Visible Light 12h 29m
Length of Day
11h 42m
Waning Gibbous, 56% of the Moon is Illuminated
Oct 7
Waning Gibbous
Oct 8
Last Quarter
Oct 15
New
Oct 21
First Quarter
Oct 29
Full

Hourly Weather History & Observations

Time (EDT) Temp. Heat Index Dew Point Humidity Pressure Visibility Wind Dir Wind Speed Gust Speed Precip Events Conditions
12:15 AM 71.6 °F - 69.8 °F 94% 29.97 in 10.0 mi Calm Calm - N/A   Clear
12:35 AM 71.6 °F - 69.8 °F 94% 29.97 in 10.0 mi Calm Calm - N/A   Clear
12:55 AM 71.6 °F - 69.8 °F 94% 29.97 in 10.0 mi Calm Calm - N/A   Scattered Clouds
1:15 AM 71.6 °F - 69.8 °F 94% 29.97 in 10.0 mi Calm Calm - N/A   Mostly Cloudy
1:35 AM 71.6 °F - 69.8 °F 94% 29.97 in 10.0 mi Calm Calm - N/A   Mostly Cloudy
1:55 AM 71.6 °F - 69.8 °F 94% 29.96 in 10.0 mi ESE 3.5 mph - N/A   Clear
2:15 AM 71.6 °F - 69.8 °F 94% 29.96 in 10.0 mi Calm Calm - N/A   Clear
2:35 AM 71.6 °F - 69.8 °F 94% 29.96 in 10.0 mi Calm Calm - N/A   Clear
2:55 AM 71.6 °F - 69.8 °F 94% 29.95 in 10.0 mi Calm Calm - N/A   Clear
3:15 AM 71.6 °F - 69.8 °F 94% 29.95 in 10.0 mi Calm Calm - N/A   Clear
3:35 AM 71.6 °F - 69.8 °F 94% 29.94 in 10.0 mi Calm Calm - N/A   Clear
3:55 AM 71.6 °F - 69.8 °F 94% 29.94 in 10.0 mi Calm Calm - N/A   Clear
4:15 AM 71.6 °F - 69.8 °F 94% 29.94 in 10.0 mi Calm Calm - N/A   Clear
4:55 AM 69.8 °F - 69.8 °F 100% 29.94 in 10.0 mi Calm Calm - N/A   Clear
5:15 AM 71.6 °F - 69.8 °F 94% 29.94 in 10.0 mi Calm Calm - N/A   Clear
5:35 AM 71.6 °F - 69.8 °F 94% 29.94 in 10.0 mi North 3.5 mph - N/A   Clear
5:50 AM 71.6 °F - 69.8 °F 94% 29.95 in 15.0 mi Calm Calm - N/A   Scattered Clouds
5:55 AM 69.8 °F - 69.8 °F 100% 29.95 in 10.0 mi North 3.5 mph - N/A   Clear
6:15 AM 69.8 °F - 69.8 °F 100% 29.95 in 10.0 mi North 3.5 mph - N/A   Clear
6:35 AM 69.8 °F - 69.8 °F 100% 29.95 in 10.0 mi Calm Calm - N/A   Clear
6:50 AM 71.6 °F - 69.8 °F 94% 29.96 in 10.0 mi Calm Calm - N/A   Scattered Clouds
7:50 AM 71.6 °F - 69.8 °F 94% 29.97 in 15.0 mi Calm Calm - N/A   Mostly Cloudy
8:50 AM 73.4 °F - 71.6 °F 94% 29.98 in 15.0 mi Calm Calm - N/A   Mostly Cloudy
9:50 AM 77.0 °F - 73.4 °F 89% 29.99 in 15.0 mi East 4.6 mph - N/A   Mostly Cloudy
10:50 AM 78.8 °F - 73.4 °F 83% 30.00 in 15.0 mi Calm Calm - N/A   Mostly Cloudy
11:50 AM 80.6 °F 84.6 °F 71.6 °F 74% 30.00 in 15.0 mi Calm Calm - N/A   Mostly Cloudy
12:50 PM 84.2 °F 88.4 °F 69.8 °F 62% 29.99 in 15.0 mi East 5.8 mph - N/A   Mostly Cloudy
1:50 PM 86.0 °F 90.4 °F 69.8 °F 58% 29.97 in 15.0 mi ESE 8.1 mph - N/A   Mostly Cloudy
2:53 PM 87.8 °F 90.4 °F 66.2 °F 49% 29.95 in 15.0 mi East 9.2 mph - N/A   Mostly Cloudy
3:50 PM 87.8 °F 91.4 °F 68.0 °F 52% 29.93 in 20.0 mi ENE 5.8 mph - N/A   Mostly Cloudy
4:52 PM 87.8 °F 91.4 °F 68.0 °F 52% 29.93 in 20.0 mi East 9.2 mph - N/A   Mostly Cloudy
5:53 PM 86.0 °F 90.4 °F 69.8 °F 58% 29.93 in 20.0 mi East 6.9 mph - N/A   Mostly Cloudy
6:50 PM 78.8 °F - 69.8 °F 74% 29.95 in 12.0 mi ESE 8.1 mph - N/A   Mostly Cloudy
7:57 PM 77.0 °F - 69.8 °F 78% 29.98 in 12.0 mi East 5.8 mph - N/A   Mostly Cloudy
8:54 PM 75.2 °F - 69.8 °F 83% 30.00 in 12.0 mi East 5.8 mph - N/A   Mostly Cloudy
9:51 PM 75.2 °F - 69.8 °F 83% 30.00 in 12.0 mi SSE 4.6 mph - N/A   Mostly Cloudy
10:55 PM 73.4 °F - 69.8 °F 88% 30.00 in 10.0 mi Calm Calm - N/A   Clear
11:15 PM 73.4 °F - 69.8 °F 88% 30.00 in 10.0 mi Calm Calm - N/A   Clear
11:35 PM 73.4 °F - 68.0 °F 83% 30.00 in 10.0 mi Calm Calm - N/A   Clear
11:55 PM 73.4 °F - 69.8 °F 88% 30.00 in 10.0 mi Calm Calm - N/A   Clear